1521997201.12,15756,13.13,72576.3,-9.85,-42.69,-42.83,0,*50
1521997202.38,15757,13.13,72578.5,-9.85,-42.69,-42.83,0,*51
1521997203.63,15758,13.13,72578.5,-9.85,-42.69,-42.69,0,*5A
1521997204.86,15759,13.13,72580.3,-9.85,-42.83,-42.89,0,*51
1521997206.09,15760,13.19,72582.5,-9.85,-42.89,-42.83,0,*5B
1521997207.33,15761,13.19,72580.5,-9.85,-43.09,-43.01,0,*58
1521997208.56,15762,13.13,72576.8,-9.85,-43.01,-43.09,0,*5B
1521997209.8,15763,13.19,72578.3,-9.87,-42.89,-43.01,0,*51
1521997211.03,15764,13.13,72574.0,-9.85,-43.01,-43.09,0,*5D
1521997212.26,15765,13.19,72576.3,-9.87,-42.89,-42.89,0,*56
1521997213.47,15766,13.13,72574.3,-9.85,-42.89,-42.89,0,*57
1521997214.7,15767,13.19,72582.3,-9.87,-42.89,-43.01,0,*55
1521997215.93,15768,13.13,72576.8,-9.87,-42.89,-43.01,0,*5A
1521997217.14,15769,13.19,72576.8,-9.85,-43.01,-42.89,0,*59
1521997218.37,15770,13.13,72572.3,-9.85,-42.89,-42.83,0,*5A
1521997219.6,15771,13.19,72578.3,-9.87,-43.01,-43.01,0,*53
1521997220.83,15772,13.13,72578.3,-9.87,-42.89,-43.01,0,*51
1521997222.06,15773,13.13,72578.0,-9.87,-42.89,-42.89,0,*51
1521997223.27,15774,13.19,72580.0,-9.85,-42.89,-43.01,0,*55
1521997224.48,15775,13.13,72578.5,-9.85,-43.01,-43.01,0,*55
1521997225.68,15776,13.19,72578.0,-9.85,-42.89,-43.01,0,*57
1521997226.92,15777,13.13,72578.8,-9.87,-43.01,-43.01,0,*55
1521997228.15,15778,13.13,72578.5,-9.87,-42.89,-43.01,0,*5B
1521997229.39,15779,13.19,72582.8,-9.85,-43.01,-43.09,0,*51
1521997230.67,15780,13.13,72576.8,-9.87,-43.09,-43.09,0,*5D
1521997231.93,15781,13.13,72580.3,-9.87,-43.09,-43.01,0,*54
1521997233.16,15782,13.19,72580.0,-9.85,-42.89,-43.09,0,*54
1521997234.37,15783,13.13,72576.5,-9.85,-42.89,-43.01,0,*5D
1521997235.6,15784,13.13,72576.5,-9.85,-42.89,-43.09,0,*52
1521997236.82,15785,13.13,72576.8,-9.85,-43.01,-43.01,0,*5A
1521997238.04,15786,13.13,72574.5,-9.87,-42.89,-42.89,0,*5B
1521997239.26,15787,13.13,72576.3,-9.85,-43.01,-43.01,0,*58
1521997240.49,15788,13.13,72576.3,-9.87,-43.01,-43.01,0,*55
1521997241.7,15789,13.13,72578.0,-9.85,-42.89,-43.01,0,*57
1521997242.93,15790,13.19,72580.3,-9.87,-42.89,-43.01,0,*5D
1521997244.16,15791,13.13,72578.5,-9.87,-43.01,-42.89,0,*5C
1521997245.39,15792,13.13,72580.3,-9.87,-42.89,-43.01,0,*5F
1521997246.64,15793,13.13,72580.3,-9.85,-42.83,-42.83,0,*5D
1521997247.85,15794,13.13,72576.8,-9.85,-42.89,-42.89,0,*5A
1521997249.1,15795,13.13,72576.8,-9.85,-42.69,-42.69,0,*5B
1521997250.36,15796,13.13,72578.8,-9.85,-42.83,-42.83,0,*58
1521997251.61,15797,13.13,72576.8,-9.85,-42.83,-42.83,0,*59
1521997252.84,15798,13.13,72582.0,-9.85,-42.89,-42.83,0,*5C
1521997254.07,15799,13.13,72580.5,-9.87,-43.01,-43.01,0,*55
1521997255.29,15800,13.19,72580.8,-9.85,-43.01,-43.01,0,*58
1521997256.52,15801,13.13,72582.3,-9.85,-42.89,-42.83,0,*53
1521997257.74,15802,13.13,72578.3,-9.85,-42.83,-42.89,0,*50
1521997258.97,15803,13.13,72576.8,-9.85,-42.83,-42.89,0,*51
1521997260.22,15804,13.13,72578.0,-9.85,-42.83,-42.83,0,*5C
1521997261.48,15805,13.13,72576.5,-9.85,-42.69,-42.83,0,*59
1521997262.73,15806,13.13,72578.5,-9.83,-42.57,-42.75,0,*58
1521997263.96,15807,13.13,72578.8,-9.85,-42.63,-42.69,0,*55
1521997265.17,15808,13.13,72582.0,-9.85,-42.63,-42.63,0,*50
1521997266.4,15809,13.13,72578.0,-9.85,-42.57,-42.63,0,*56
1521997267.65,15810,13.13,72580.3,-9.85,-42.57,-42.57,0,*59
1521997268.9,15811,13.13,72582.0,-9.85,-42.57,-42.57,0,*58
1521997270.15,15812,13.13,72578.8,-9.85,-42.57,-42.57,0,*5B
1521997271.4,15813,13.13,72578.0,-9.85,-42.57,-42.57,0,*5A
1521997272.65,15814,13.13,72578.0,-9.83,-42.57,-42.51,0,*5D
1521997273.9,15815,13.13,72578.5,-9.83,-42.57,-42.51,0,*5C
1521997275.1,15816,13.13,72582.3,-9.81,-42.37,-42.51,0,*5B
1521997276.33,15817,13.13,72576.3,-9.81,-42.57,-42.51,0,*5C
1521997277.54,15818,13.13,72578.5,-9.81,-42.51,-42.51,0,*55
1521997278.78,15819,13.13,72580.0,-9.83,-42.51,-42.57,0,*50
1521997280.01,15820,13.13,72580.0,-9.81,-42.51,-42.57,0,*58
1521997281.22,15821,13.13,72580.8,-9.81,-42.51,-42.51,0,*5F
1521997282.44,15822,13.13,72576.3,-9.83,-42.51,-42.51,0,*5E
1521997283.65,15823,13.19,72580.5,-9.81,-42.51,-42.51,0,*5D
1521997284.86,15824,13.13,72576.0,-9.81,-42.51,-42.51,0,*5A
1521997286.09,15825,13.13,72578.0,-9.81,-42.57,-42.63,0,*5C
1521997287.31,15826,13.13,72576.5,-9.81,-42.63,-42.57,0,*5F
1521997288.53,15827,13.13,72578.0,-9.81,-42.63,-42.57,0,*5E
1521997289.76,15828,13.13,72580.5,-9.81,-42.57,-42.63,0,*51
1521997291.01,15829,13.13,72576.5,-9.81,-42.57,-42.57,0,*57
1521997292.23,15830,13.13,72582.3,-9.81,-42.51,-42.57,0,*59
1521997293.51,15831,13.13,72578.3,-9.77,-42.45,-42.45,0,*57
1521997294.74,15832,13.13,72578.8,-9.79,-42.45,-42.51,0,*5F
1521997295.97,15833,13.13,72576.0,-9.79,-42.45,-42.51,0,*5E
1521997297.21,15834,13.13,72578.0,-9.79,-42.45,-42.51,0,*59
1521997298.49,15835,13.13,72576.5,-9.77,-42.45,-42.45,0,*53
1521997299.75,15836,13.13,72578.0,-9.79,-42.45,-42.31,0,*5D
1521997301.0,15837,13.13,72580.5,-9.79,-42.45,-42.57,0,*5C
1521997302.25,15838,13.13,72576.5,-9.77,-42.45,-42.25,0,*58
1521997303.51,15839,13.13,72576.5,-9.77,-42.45,-42.25,0,*59
1521997304.78,15840,13.13,72576.3,-9.79,-42.31,-42.31,0,*5F
1521997306.03,15841,13.13,72576.3,-9.77,-42.31,-42.13,0,*50
1521997307.3,15842,13.13,72578.3,-9.77,-42.31,-42.25,0,*56
1521997308.58,15843,13.13,72578.5,-9.77,-42.31,-42.45,0,*51
1521997309.84,15844,13.13,72578.5,-9.77,-42.31,-42.13,0,*55
1521997311.07,15845,13.13,72576.8,-9.77,-42.25,-42.13,0,*51
1521997312.31,15846,13.13,72576.0,-9.77,-42.25,-42.13,0,*52
1521997313.58,15847,13.13,72576.0,-9.73,-42.05,-42.05,0,*52
1521997314.84,15848,13.13,72582.0,-9.75,-42.19,-42.05,0,*56
1521997316.09,15849,13.13,72578.3,-9.73,-42.05,-41.99,0,*5A
1521997317.34,15850,13.13,72578.0,-9.71,-41.93,-41.81,0,*55
1521997318.54,15851,13.13,72576.8,-9.71,-42.13,-42.13,0,*57
1521997319.74,15852,13.13,72578.3,-9.71,-42.13,-42.13,0,*54
1521997320.94,15853,13.13,72574.3,-9.71,-42.13,-42.13,0,*55
1521997322.17,15854,13.13,72574.5,-9.71,-42.19,-42.13,0,*58
1521997323.43,15855,13.13,72580.3,-9.71,-42.19,-42.19,0,*53
1521997324.66,15856,13.13,72578.3,-9.71,-42.19,-42.13,0,*5A
1521997325.86,15857,13.13,72576.0,-9.67,-42.13,-41.99,0,*57
1521997327.07,15858,13.13,72576.8,-9.67,-42.13,-41.99,0,*58
1521997328.29,15859,13.13,72578.3,-9.67,-41.99,-41.93,0,*52
1521997329.49,15860,13.13,72574.8,-9.67,-41.99,-41.99,0,*52
1521997330.71,15861,13.13,72576.3,-9.67,-41.99,-41.81,0,*5A
1521997331.91,15862,13.13,72578.5,-9.67,-41.99,-41.99,0,*50
1521997333.18,15863,13.13,72574.0,-9.65,-42.05,-41.93,0,*5F
1521997334.4,15864,13.13,72578.0,-9.63,-41.87,-42.05,0,*5B
1521997335.68,15865,13.13,72578.5,-9.65,-41.93,-41.93,0,*55
1521997336.91,15866,13.13,72576.3,-9.63,-41.93,-41.87,0,*55
1521997338.15,15867,13.13,72576.3,-9.63,-42.05,-41.93,0,*5D
1521997339.38,15868,13.13,72574.3,-9.63,-41.93,-41.87,0,*5B
1521997340.63,15869,13.13,72574.3,-9.63,-42.05,-41.93,0,*53
1521997341.87,15870,13.13,72574.8,-9.63,-41.93,-41.93,0,*57
1521997343.12,15871,13.13,72580.8,-9.63,-41.93,-41.93,0,*56
1521997344.36,15872,13.13,72582.0,-9.63,-42.05,-41.93,0,*59
1521997345.57,15873,13.13,72576.8,-9.59,-41.99,-41.87,0,*52
1521997346.8,15874,13.13,72578.0,-9.61,-41.99,-41.99,0,*51
1521997348.02,15875,13.13,72576.5,-9.59,-41.99,-42.05,0,*5D
1521997349.26,15876,13.13,72576.0,-9.61,-41.99,-41.87,0,*5C
1521997350.46,15877,13.13,72578.3,-9.59,-41.99,-41.99,0,*59
1521997351.69,15878,13.13,72576.8,-9.59,-41.67,-41.99,0,*57
1521997352.95,15879,13.13,72576.8,-9.59,-41.67,-41.81,0,*5F
1521997354.17,15880,13.13,72576.5,-9.59,-41.29,-41.81,0,*53
1521997355.44,15881,13.13,72576.0,-9.57,-41.55,-41.81,0,*57
1521997356.71,15882,13.13,72576.0,-9.57,-41.55,-41.93,0,*57
1521997357.97,15883,13.13,72578.0,-9.57,-41.61,-41.81,0,*52
1521997359.19,15884,13.13,72574.0,-9.55,-41.41,-41.81,0,*55
1521997360.45,15885,13.13,72572.8,-9.55,-41.35,-41.81,0,*57
1521997361.7,15886,13.13,72576.8,-9.55,-41.55,-41.93,0,*51
1521997362.97,15887,13.13,72578.5,-9.57,-41.55,-41.93,0,*52
1521997364.2,15888,13.13,72578.0,-9.55,-41.73,-42.19,0,*5A
1521997365.45,15889,13.13,72576.3,-9.57,-41.73,-42.19,0,*59
1521997366.68,15890,13.13,72578.5,-9.55,-41.81,-42.13,0,*54
1521997367.88,15891,13.13,72578.0,-9.55,-41.73,-42.13,0,*58
1521997369.08,15892,13.13,72580.5,-9.55,-41.73,-42.13,0,*5B
1521997370.28,15893,13.13,72576.0,-9.55,-41.73,-41.99,0,*5B
1521997371.54,15894,13.13,72578.8,-9.53,-41.73,-42.19,0,*51
1521997372.79,15895,13.13,72576.8,-9.53,-41.55,-42.13,0,*5E
1521997374.01,15896,13.13,72578.0,-9.51,-41.67,-42.13,0,*5E
1521997375.24,15897,13.13,72578.8,-9.53,-41.73,-42.13,0,*58
1521997376.52,15898,13.13,72576.8,-9.53,-41.67,-42.05,0,*55
1521997377.77,15899,13.13,72582.5,-9.51,-41.67,-41.93,0,*5A
1521997379.02,15900,13.13,72578.3,-9.51,-41.67,-42.05,0,*57
1521997380.27,15901,13.13,72574.5,-9.51,-41.67,-42.05,0,*56
1521997381.52,15902,13.13,72576.3,-9.51,-41.55,-41.93,0,*58
1521997382.76,15903,13.13,72578.0,-9.51,-41.55,-42.05,0,*55
1521997384.01,15904,13.13,72576.3,-9.51,-41.67,-42.05,0,*53
1521997385.24,15905,13.13,72578.0,-9.51,-41.73,-42.05,0,*57
1521997386.46,15906,13.13,72580.5,-9.51,-41.87,-41.93,0,*53
1521997387.68,15907,13.13,72576.0,-9.51,-41.73,-42.05,0,*55
1521997388.96,15908,13.13,72582.8,-9.49,-41.67,-42.05,0,*56
1521997390.21,15909,13.13,72576.5,-9.49,-41.81,-41.99,0,*59
1521997391.48,15910,13.13,72578.3,-9.45,-41.81,-41.87,0,*52
1521997392.71,15911,13.13,72578.8,-9.49,-41.87,-41.99,0,*56
1521997393.97,15912,13.13,72578.0,-9.45,-41.87,-42.05,0,*5F
1521997395.21,15913,13.13,72580.5,-9.45,-41.87,-42.13,0,*59
1521997396.45,15914,13.13,72576.5,-9.45,-41.99,-42.13,0,*51
1521997397.68,15915,13.13,72580.8,-9.49,-41.99,-42.13,0,*5C
1521997398.92,15916,13.13,72580.0,-9.45,-41.87,-42.13,0,*5C
1521997400.2,15917,13.13,72582.0,-9.45,-41.81,-42.05,0,*5C
1521997401.47,15918,13.13,72576.0,-9.45,-41.87,-42.05,0,*55
1521997402.73,15919,13.13,72580.0,-9.43,-41.81,-42.05,0,*54
1521997403.95,15920,13.13,72578.3,-9.43,-41.99,-42.25,0,*55
1521997405.17,15921,13.13,72580.0,-9.43,-41.99,-42.25,0,*54
1521997406.38,15922,13.13,72578.8,-9.43,-41.99,-42.25,0,*57
1521997407.6,15923,13.13,72576.8,-9.43,-41.99,-42.25,0,*56
1521997408.81,15924,13.13,72576.0,-9.43,-41.99,-42.25,0,*51
1521997410.11,15925,13.13,72580.0,-9.41,-41.93,-42.19,0,*57
1521997411.33,15926,13.13,72578.3,-9.43,-41.99,-42.25,0,*53
1521997412.6,15927,13.13,72578.8,-9.41,-41.99,-42.19,0,*5F
1521997413.89,15928,13.13,72576.5,-9.41,-41.93,-42.05,0,*57
1521997415.16,15929,13.13,72578.3,-9.41,-41.93,-42.25,0,*54
1521997416.4,15930,13.13,72578.5,-9.41,-41.99,-42.37,0,*55
1521997417.67,15931,13.13,72576.8,-9.41,-41.99,-42.19,0,*58
1521997418.94,15932,13.13,72578.8,-9.43,-41.93,-42.19,0,*53
1521997420.21,15933,13.13,72576.8,-9.41,-41.99,-42.19,0,*5A
1521997421.5,15934,13.13,72578.0,-9.41,-41.93,-42.19,0,*57
1521997422.8,15935,13.13,72576.3,-9.41,-41.93,-42.19,0,*56
1521997424.07,15936,13.13,72578.5,-9.41,-41.93,-42.25,0,*5A
1521997425.34,15937,13.13,72576.0,-9.41,-41.81,-41.99,0,*5C
1521997426.63,15938,13.13,72574.5,-9.41,-41.81,-42.05,0,*55
1521997427.85,15939,13.13,72580.5,-9.39,-41.87,-42.13,0,*5A
1521997429.12,15940,13.13,72582.0,-9.37,-41.87,-42.19,0,*50
1521997430.36,15941,13.13,72576.8,-9.37,-41.73,-41.99,0,*51
1521997431.62,15942,13.13,72578.8,-9.37,-41.93,-42.37,0,*5B
1521997432.92,15943,13.13,72578.5,-9.37,-41.93,-42.19,0,*56
1521997434.13,15944,13.13,72578.8,-9.39,-41.73,-42.13,0,*5B
1521997435.37,15945,13.13,72576.0,-9.39,-41.35,-41.99,0,*59
1521997436.61,15946,13.13,72580.0,-9.37,-41.49,-41.99,0,*5F
1521997437.85,15947,13.13,72576.8,-9.37,-41.49,-42.13,0,*5F
1521997439.13,15948,13.13,72578.0,-9.37,-41.55,-41.93,0,*56
1521997440.37,15949,13.13,72576.5,-9.37,-41.49,-42.13,0,*51
1521997441.64,15950,13.13,72578.0,-9.37,-41.67,-41.99,0,*54
1521997442.94,15951,13.13,72576.0,-9.37,-41.93,-42.19,0,*55
1521997444.18,15952,13.13,72578.3,-9.37,-41.73,-42.13,0,*52
1521997445.45,15953,13.13,72576.5,-9.37,-41.73,-42.19,0,*59
1521997446.66,15954,13.13,72572.5,-9.35,-41.61,-42.25,0,*50
1521997447.91,15955,13.13,72576.3,-9.35,-41.67,-42.25,0,*57
1521997449.14,15956,13.13,72578.0,-9.33,-41.49,-42.25,0,*5E
1521997450.36,15957,13.13,72576.0,-9.35,-41.49,-42.13,0,*5C
1521997451.62,15958,13.13,72576.5,-9.33,-41.49,-42.05,0,*52
1521997452.83,15959,13.13,72574.8,-9.35,-41.61,-42.13,0,*58
1521997454.07,15960,13.13,72574.8,-9.35,-41.61,-42.05,0,*55
1521997455.32,15961,13.13,72576.5,-9.35,-41.67,-42.25,0,*50
1521997456.58,15962,13.13,72578.8,-9.33,-41.67,-42.13,0,*50
1521997457.81,15963,13.13,72578.8,-9.33,-40.73,-42.13,0,*55
1521997459.05,15964,13.13,72578.3,-9.35,-40.47,-42.05,0,*54
1521997460.32,15965,13.13,72582.5,-9.33,-36.55,-41.67,0,*56
1521997461.59,15966,13.13,72576.5,-9.35,-37.39,-41.81,0,*50
1521997462.85,15967,13.13,72576.5,-9.33,-39.53,-41.61,0,*5B
1521997464.15,15968,13.06,72572.5,-9.33,-40.41,-41.67,0,*5F
1521997465.39,15969,13.13,72578.0,-9.29,-40.35,-41.41,0,*52
1521997466.65,15970,13.13,72582.5,-9.31,-40.21,-41.35,0,*55
1521997467.92,15971,13.13,72576.0,-9.31,-40.21,-41.35,0,*54
1521997469.16,15972,13.06,72576.3,-9.29,-40.35,-41.41,0,*58
1521997470.4,15973,13.13,72576.5,-9.29,-40.35,-41.61,0,*5B
1521997471.67,15974,13.13,72578.3,-9.29,-40.35,-41.55,0,*5B
1521997472.93,15975,13.13,72576.8,-9.29,-40.41,-41.61,0,*5E
1521997474.2,15976,13.13,72580.3,-9.29,-40.41,-41.61,0,*5D
1521997475.48,15977,13.06,72574.5,-9.29,-40.41,-41.41,0,*5E
1521997476.72,15978,13.13,72578.5,-9.27,-40.35,-41.67,0,*58
1521997477.96,15979,13.13,72580.3,-9.27,-40.35,-41.35,0,*5E
1521997479.2,15980,13.13,72576.8,-9.27,-40.29,-41.49,0,*5E
1521997480.44,15981,13.13,72578.3,-9.27,-40.35,-41.55,0,*5F
1521997481.68,15982,13.13,72576.8,-9.23,-40.47,-41.55,0,*5D
1521997482.92,15983,13.13,72578.3,-9.27,-40.35,-41.55,0,*5D
1521997484.15,15984,13.13,72578.5,-9.23,-40.35,-41.55,0,*5E
1521997485.36,15985,13.13,72578.8,-9.23,-40.53,-41.73,0,*5B
1521997486.56,15986,13.13,72578.5,-9.23,-40.53,-41.73,0,*58
1521997487.76,15987,13.13,72576.3,-9.23,-40.53,-41.73,0,*59
1521997489.02,15988,13.06,72572.5,-9.21,-40.53,-41.67,0,*51
1521997490.29,15989,13.13,72578.5,-9.21,-40.41,-41.49,0,*5F
1521997491.55,15990,13.13,72580.0,-9.21,-40.29,-41.61,0,*53
1521997492.79,15991,13.13,72578.0,-9.19,-40.41,-41.61,0,*57
1521997494.06,15992,13.13,72576.8,-9.19,-40.41,-41.67,0,*52
1521997495.36,15993,13.13,72578.0,-9.21,-40.41,-41.67,0,*58
1521997496.58,15994,13.13,72578.3,-9.19,-40.47,-41.73,0,*57
1521997497.79,15995,13.13,72580.8,-9.19,-40.47,-41.73,0,*56
1521997499.02,15996,13.06,72574.5,-9.19,-40.65,-41.93,0,*5B
1521997500.29,15997,13.13,72576.0,-9.19,-37.99,-41.67,0,*52
1521997501.5,15998,13.13,72580.0,-9.19,-36.01,-41.49,0,*51
1521997502.74,15999,13.13,72580.0,-9.19,-36.79,-41.29,0,*59
1521997503.99,16000,13.13,72576.8,-9.19,-37.93,-41.41,0,*58
1521997505.2,16001,13.13,72580.3,-9.19,-35.13,-41.61,0,*51
1521997506.45,16002,13.06,72578.3,-9.17,-28.69,-41.03,0,*59
1521997507.74,16003,13.13,72582.0,-9.17,-31.91,-41.35,0,*52
1521997509.01,16004,13.13,72576.0,-9.15,-31.79,-41.35,0,*51
1521997510.27,16005,13.06,72578.5,-9.15,-36.31,-41.81,0,*54
1521997511.54,16006,13.06,72574.5,-9.17,-38.29,-41.87,0,*54
1521997512.81,16007,13.06,72576.0,-9.17,-38.29,-41.87,0,*55
1521997514.08,16008,13.06,72578.8,-9.15,-38.29,-41.87,0,*58
1521997515.38,16009,13.13,72576.5,-9.15,-34.65,-41.67,0,*53
1521997516.62,16010,13.13,72578.5,-9.15,-30.83,-41.61,0,*51
1521997517.85,16011,13.13,72578.5,-9.15,-31.05,-41.61,0,*5F
1521997519.09,16012,13.06,72576.5,-9.15,-37.15,-41.87,0,*53
1521997520.35,16013,13.13,72580.8,-9.15,-39.29,-41.87,0,*53
1521997521.63,16014,13.06,72582.8,-9.15,-40.79,-42.05,0,*56
1521997522.89,16015,13.13,72578.8,-9.15,-42.25,-42.45,0,*58
1521997524.18,16016,13.06,72578.3,-9.17,-42.57,-42.45,0,*5C
1521997525.46,16017,13.06,72576.8,-9.17,-42.57,-42.57,0,*5E
1521997526.74,16018,13.13,72578.8,-9.17,-42.57,-42.45,0,*52
1521997528.03,16019,13.06,72576.5,-9.15,-42.57,-42.45,0,*51
1521997529.31,16020,13.06,72578.0,-9.15,-42.57,-42.45,0,*5B
1521997530.59,16021,13.13,72582.0,-9.15,-42.45,-42.57,0,*5A
1521997531.87,16022,13.13,72582.3,-9.15,-42.57,-42.45,0,*59
1521997533.15,16023,13.06,72580.0,-9.15,-42.57,-42.45,0,*58
1521997534.39,16024,13.13,72582.0,-9.15,-42.63,-42.63,0,*5C
1521997535.64,16025,13.06,72578.5,-9.17,-42.63,-42.63,0,*5F
1521997536.92,16026,13.06,72576.5,-9.15,-42.57,-42.57,0,*5E
1521997538.2,16027,13.06,72578.5,-9.17,-42.57,-42.57,0,*5D
1521997539.44,16028,13.06,72576.0,-9.17,-42.63,-42.63,0,*52
1521997540.69,16029,13.06,72582.0,-9.17,-42.63,-42.63,0,*53
1521997541.97,16030,13.06,72578.8,-9.17,-42.57,-42.57,0,*5B
1521997543.23,16031,13.06,72576.0,-9.15,-42.57,-42.37,0,*5E
1521997544.49,16032,13.06,72582.8,-9.17,-42.57,-42.63,0,*5E
1521997545.78,16033,13.06,72578.0,-9.17,-42.45,-42.45,0,*58
1521997547.06,16034,13.06,72578.5,-9.15,-42.57,-42.45,0,*5E
1521997548.32,16035,13.06,72574.8,-9.15,-42.57,-42.37,0,*5A
1521997549.57,16036,13.06,72576.8,-9.17,-42.57,-42.37,0,*5B
1521997550.83,16037,13.06,72578.5,-9.17,-42.57,-42.37,0,*5A
1521997552.12,16038,13.06,72578.3,-9.17,-42.45,-42.45,0,*53
1521997553.38,16039,13.06,72578.0,-9.17,-42.45,-42.37,0,*57
1521997554.62,16040,13.06,72580.8,-9.15,-42.37,-42.25,0,*5D
1521997555.9,16041,13.06,72576.8,-9.17,-42.57,-42.45,0,*5E
1521997557.18,16042,13.06,72576.5,-9.17,-42.57,-42.57,0,*5E
1521997558.47,16043,13.06,72574.5,-9.15,-42.57,-42.57,0,*5D
1521997559.75,16044,13.06,72576.0,-9.15,-42.45,-42.57,0,*59
1521997561.01,16045,13.06,72578.8,-9.17,-42.45,-42.37,0,*5C
1521997562.25,16046,13.13,72580.0,-9.15,-42.37,-42.37,0,*58
1521997563.53,16047,13.06,72574.8,-9.17,-42.57,-42.45,0,*58
1521997564.79,16048,13.06,72576.5,-9.17,-42.57,-42.37,0,*52
1521997566.05,16049,13.06,72578.0,-9.17,-42.57,-42.37,0,*53
1521997567.31,16050,13.06,72578.3,-9.17,-42.45,-42.25,0,*5B
1521997568.55,16051,13.06,72578.3,-9.15,-42.37,-42.37,0,*5E
1521997569.81,16052,13.06,72576.8,-9.17,-42.45,-42.37,0,*5A
1521997571.07,16053,13.06,72578.8,-9.17,-42.45,-42.37,0,*5B
1521997572.35,16054,13.06,72576.5,-9.17,-42.57,-42.45,0,*5A
1521997573.61,16055,13.06,72578.5,-9.17,-42.45,-42.37,0,*5D
1521997574.88,16056,13.06,72576.5,-9.15,-42.57,-42.63,0,*5E
1521997576.14,16057,13.06,72582.3,-9.15,-42.75,-42.83,0,*51
1521997577.38,16058,13.06,72576.8,-9.17,-42.63,-42.75,0,*52
1521997578.64,16059,13.06,72580.0,-9.15,-42.63,-42.83,0,*58
1521997579.88,16060,13.06,72576.5,-9.17,-42.63,-42.75,0,*59
1521997581.15,16061,13.06,72576.5,-9.17,-42.63,-42.57,0,*58
1521997582.39,16062,13.06,72576.0,-9.17,-42.63,-42.63,0,*5C
1521997583.63,16063,13.06,72576.5,-9.17,-42.63,-42.63,0,*5D
1521997584.87,16064,13.06,72576.0,-9.17,-42.63,-42.63,0,*5A
1521997586.13,16065,13.06,72578.3,-9.17,-42.63,-42.57,0,*5C
1521997587.39,16066,13.06,72576.0,-9.15,-42.45,-42.37,0,*5F
1521997588.65,16067,13.06,72576.0,-9.17,-42.57,-42.37,0,*5F
1521997589.91,16068,13.06,72576.0,-9.17,-42.45,-42.37,0,*53
1521997591.2,16069,13.06,72582.3,-9.15,-42.57,-42.45,0,*56
1521997592.48,16070,13.06,72582.5,-9.17,-42.57,-42.57,0,*5F
1521997593.74,16071,13.06,72582.3,-9.15,-42.57,-42.63,0,*5B
1521997595.0,16072,13.06,72576.5,-9.15,-42.75,-42.83,0,*56
1521997596.3,16073,13.06,72578.3,-9.17,-42.83,-42.95,0,*5B
1521997597.56,16074,13.06,72582.8,-9.17,-42.75,-42.83,0,*52
1521997598.83,16075,13.06,72584.3,-9.17,-42.75,-42.83,0,*53
1521997600.12,16076,13.06,72580.3,-9.17,-42.95,-42.83,0,*5E
1521997601.36,16077,13.06,72582.0,-9.15,-42.75,-42.75,0,*5A
1521997602.65,16078,13.06,72580.8,-9.17,-42.83,-42.83,0,*57
1521997603.9,16079,13.06,72580.3,-9.17,-42.75,-42.75,0,*56
1521997605.16,16080,13.06,72576.0,-9.17,-42.75,-42.83,0,*59
1521997606.41,16081,13.06,72576.5,-9.17,-42.75,-42.75,0,*51
1521997607.67,16082,13.06,72578.3,-9.17,-42.75,-42.83,0,*5B
1521997608.91,16083,13.06,72576.3,-9.17,-42.63,-42.75,0,*54
1521997610.15,16084,13.06,72580.3,-9.19,-42.83,-42.89,0,*50
1521997611.39,16085,13.06,72578.8,-9.19,-42.69,-42.89,0,*55
1521997612.61,16086,13.06,72576.8,-9.19,-42.89,-42.89,0,*58
1521997613.84,16087,13.06,72578.5,-9.19,-42.89,-42.83,0,*53
1521997615.11,16088,13.06,72580.3,-9.19,-42.69,-42.83,0,*52
1521997616.39,16089,13.06,72578.3,-9.21,-42.83,-42.83,0,*5C
1521997617.64,16090,13.06,72580.0,-9.19,-43.01,-42.83,0,*54
1521997618.88,16091,13.06,72576.0,-9.21,-42.89,-42.89,0,*55
1521997620.11,16092,13.06,72578.5,-9.19,-42.89,-42.83,0,*57
1521997621.38,16093,13.06,72582.3,-9.19,-42.83,-42.83,0,*5C
1521997622.62,16094,13.06,72576.3,-9.19,-42.83,-43.01,0,*50
1521997623.85,16095,13.06,72578.8,-9.19,-42.83,-42.89,0,*50
1521997625.07,16096,13.06,72580.8,-9.19,-43.01,-43.01,0,*59
1521997626.31,16097,13.06,72580.5,-9.21,-42.89,-43.15,0,*57
1521997627.56,16098,13.06,72582.3,-9.21,-43.01,-42.89,0,*5D
1521997628.77,16099,13.06,72578.8,-9.19,-42.89,-42.89,0,*56
1521997630.01,16100,13.06,72582.8,-9.21,-42.89,-43.01,0,*5D
1521997631.25,16101,13.06,72576.5,-9.21,-42.89,-43.01,0,*5C
1521997632.5,16102,13.06,72580.0,-9.21,-43.01,-43.15,0,*5B
1521997633.74,16103,13.06,72582.3,-9.21,-43.01,-42.89,0,*5E
1521997634.96,16104,13.06,72578.5,-9.19,-42.89,-42.89,0,*53
1521997636.16,16105,13.06,72582.5,-9.23,-42.75,-42.89,0,*58
1521997637.4,16106,13.06,72584.0,-9.23,-42.75,-42.69,0,*55
1521997638.66,16107,13.06,72578.5,-9.21,-42.89,-42.83,0,*51
1521997639.9,16108,13.06,72580.0,-9.21,-42.89,-43.01,0,*55
1521997641.16,16109,13.06,72582.5,-9.21,-42.89,-42.83,0,*5F
1521997642.37,16110,13.06,72582.0,-9.23,-42.75,-42.89,0,*5C
1521997643.58,16111,13.06,72580.0,-9.23,-42.89,-42.89,0,*5E
1521997644.79,16112,13.06,72580.5,-9.23,-42.75,-42.89,0,*5E
1521997646.07,16113,13.06,72578.0,-9.27,-42.95,-42.95,0,*58
1521997647.31,16114,13.06,72576.5,-9.27,-42.95,-42.89,0,*52
1521997648.59,16115,13.06,72576.8,-9.27,-42.95,-42.95,0,*5E
1521997649.87,16116,13.06,72578.3,-9.27,-42.95,-42.95,0,*5D
1521997651.1,16117,13.06,72578.8,-9.23,-42.95,-42.89,0,*55
1521997652.37,16118,13.06,72576.5,-9.23,-42.95,-42.95,0,*57
1521997653.58,16119,13.06,72578.3,-9.23,-42.89,-42.89,0,*56
1521997654.79,16120,13.06,72580.8,-9.23,-42.89,-42.89,0,*5C
1521997656.01,16121,13.06,72578.0,-9.23,-42.75,-42.75,0,*5D
1521997657.22,16122,13.06,72582.3,-9.27,-42.89,-42.89,0,*5A
1521997658.46,16123,13.06,72580.0,-9.23,-42.95,-42.89,0,*52
1521997659.69,16124,13.06,72578.8,-9.23,-43.09,-42.89,0,*51
1521997660.94,16125,13.06,72582.3,-9.27,-42.75,-42.69,0,*50
1521997662.18,16126,13.06,72580.8,-9.27,-42.69,-42.89,0,*50
1521997663.39,16127,13.06,72582.8,-9.23,-42.89,-42.89,0,*5B
1521997664.62,16128,13.06,72578.3,-9.23,-42.89,-42.95,0,*59
1521997665.86,16129,13.06,72576.5,-9.23,-42.75,-42.57,0,*55
1521997667.1,16130,13.06,72578.8,-9.27,-42.75,-42.69,0,*54
1521997668.36,16131,13.06,72578.5,-9.27,-42.69,-42.57,0,*55
1521997669.61,16132,13.06,72578.8,-9.27,-42.69,-42.75,0,*56
1521997670.83,16133,13.06,72576.0,-9.27,-42.75,-42.75,0,*5A
1521997672.08,16134,13.06,72576.0,-9.27,-42.89,-42.95,0,*50
1521997673.32,16135,13.06,72578.0,-9.27,-42.75,-42.69,0,*51
1521997674.58,16136,13.06,72576.5,-9.23,-42.69,-42.69,0,*5B
1521997675.84,16137,13.06,72578.0,-9.27,-42.69,-42.69,0,*5E
1521997677.09,16138,13.06,72580.0,-9.27,-42.69,-42.75,0,*5C
1521997678.33,16139,13.06,72578.8,-9.27,-42.69,-42.51,0,*5B
1521997679.58,16140,13.06,72576.3,-9.27,-42.69,-42.75,0,*53
1521997680.82,16141,13.06,72576.0,-9.27,-42.69,-42.75,0,*52
1521997682.07,16142,13.06,72580.3,-9.27,-42.69,-42.75,0,*51
1521997683.28,16143,13.06,72580.5,-9.23,-42.89,-42.75,0,*5A
1521997684.51,16144,13.06,72578.0,-9.27,-42.75,-42.75,0,*5A
1521997685.74,16145,13.06,72578.0,-9.23,-42.75,-42.69,0,*52
1521997687.01,16146,13.06,72578.8,-9.27,-42.69,-42.69,0,*58
1521997688.25,16147,13.06,72580.8,-9.27,-42.57,-42.51,0,*5F
1521997689.5,16148,13.06,72580.8,-9.23,-42.69,-42.57,0,*5F
1521997690.74,16149,13.06,72582.5,-9.27,-42.75,-42.69,0,*5A
1521997692.01,16150,13.06,72578.3,-9.27,-42.69,-42.69,0,*5F
1521997693.25,16151,13.06,72578.5,-9.27,-42.69,-42.75,0,*53
1521997694.5,16152,13.06,72580.5,-9.27,-42.69,-42.75,0,*50
1521997695.75,16153,13.06,72580.8,-9.27,-42.69,-42.75,0,*51
1521997696.98,16154,13.06,72576.5,-9.23,-42.75,-42.69,0,*52
1521997698.23,16155,13.06,72576.8,-9.27,-42.75,-42.69,0,*57